Location: Clarion
(42.7316°N, 93.7330°W)
Time: 01:14:31
(UTC+00:00)

Cosmos 2263 - Pass Details

Date: 22 April 2026
Orbit: 830 x 864 km, 70.9° (Epoch: 20 May)

Event Time Altitude Azimuth Distance (km) Brightness Sun altitude
Rises 03:37:00 0° 334° (NNW) 3,396 8.6 -24.4°
Reaches altitude 10° 03:39:26 10° 334° (NNW) 2,462 7.6 -24.7°
Maximum altitude 03:45:06 85° 248° (WSW) 854 4.1 -25.4°
Enters shadow 03:45:51 68° 170° (S) 908 4.1 -25.5°
